[Iaude] MPEC E78: 2024 EY1 [a=0.81,e=0.31,i=5.4,H=28.4]

mpec at cfa.harvard.edu mpec at cfa.harvard.edu
Wed Mar 6 08:14:18 EST 2024


M.P.E.C. 2024-E78                                 Issued 2024 March 6, 13:12 UT

     The Minor Planet Electronic Circulars contain information on unusual
         minor planets, routine data on comets and natural satellites,
         and occasional editorial announcements.  They are published
    on behalf of Division F of the International Astronomical Union by the
          Minor Planet Center, Smithsonian Astrophysical Observatory,
                          Cambridge, MA 02138, U.S.A.
			  
             Prepared using the Tamkin Foundation Computer Network

                              MPC at CFA.HARVARD.EDU
            URL https://www.minorplanetcenter.net/    ISSN 1523-6714

                                    2024 EY1                                    


Observations:
     K24E01Y*1C2024 03 05.28942011 02 24.176+10 55 34.43         20.97GVEE078G96
     K24E01Y 1C2024 03 05.29458911 02 12.275+10 55 40.08         20.37GVEE078G96
     K24E01Y 1C2024 03 05.29975911 02 00.535+10 55 45.48         20.23GVEE078G96
     K24E01Y 1C2024 03 05.30494011 01 48.648+10 55 50.70         20.52GVEE078G96
     K24E01Y  C2024 03 05.32012711 01 12.383+10 55 55.84         19.7 GVEE078H01
     K24E01Y  C2024 03 05.32345311 01 04.764+10 55 59.09         20.3 GVEE078H01
     K24E01Y  C2024 03 05.33382811 00 40.934+10 56 08.77         20.0 GVEE078H01
     K24E01Y  C2024 03 05.34445311 00 16.460+10 56 18.55         20.1 GVEE078H01
     K24E01Y KC2024 03 05.41080210 57 43.873+10 57 23.58         20.33GVEE078I52
     K24E01Y KC2024 03 05.41211810 57 40.802+10 57 24.52         20.33GVEE078I52
     K24E01Y KC2024 03 05.41343210 57 37.775+10 57 25.56         20.55GVEE078I52
     K24E01Y KC2024 03 05.41475510 57 34.679+10 57 26.60         20.86GVEE078I52
     K24E01Y KC2024 03 06.02478510 33 17.450+11 02 23.93         20.7 GVEE078J95
     K24E01Y KC2024 03 06.03214810 32 57.211+11 02 26.23         20.4 GVEE078J95
     K24E01Y KC2024 03 06.03709410 32 43.668+11 02 27.46         19.8 GVEE078J95
     K24E01Y |C2024 03 06.13575010 28 33.920+11 12 59.60         19.6 GVEE078807
     K24E01Y |C2024 03 06.13909010 28 24.300+11 13 01.20         20.0 GVEE078807
     K24E01Y |C2024 03 06.14247010 28 14.590+11 13 02.50         20.2 GVEE078807
     K24E01Y |C2024 03 06.14580010 28 05.030+11 13 03.90         20.3 GVEE078807
     K24E01Y KC2024 03 06.15980210 27 38.95 +11 04 32.5          19.8 GXEE078858
     K24E01Y KC2024 03 06.16551810 27 22.69 +11 04 34.7          19.7 GXEE078858
     K24E01Y KC2024 03 06.17209410 27 03.92 +11 04 37.4          19.6 GXEE078858

Observer details:
807 Cerro Tololo Observatory, La Serena.  Observers T. Linder, R. Holmes.
    0.61-m f/6.8 Ritchey-Chretien + CCD.
858 Tebbutt Observatory, Edgewood.  Observer F. B. Zoltowski.  0.51-m f/8.1
    Schmidt-Cassegrain + CCD.
G96 Mt. Lemmon Survey.  Observer G. J. Leonard.  Measurers T. Beuden, V. F.
    Carvajal, D. Fay, J. B. Fazekas, D. C. Fuls, A. R. Gibbs, A. D. Grauer, H.
    Groeller, J. K. Hogan, R. A. Kowalski, S. M. Larson, G. J. Leonard, D.
    Rankin, R. L. Seaman, F. C. Shelly, K. W. Wierzchos.  1.5-m reflector +
    10K CCD.
H01 Magdalena Ridge Observatory, Socorro.  Observers W. H. Ryan, E. V. Ryan.
    Measurer W. H. Ryan.  2.4-m f/8.9 Ritchey-Chretien + CCD.
I52 Steward Observatory, Mt. Lemmon Station.  Observer J. K. Hogan.  Measurers
    T. Beuden, V. F. Carvajal, D. Fay, J. B. Fazekas, D. C. Fuls, A. R. Gibbs,
    A. D. Grauer, H. Groeller, J. K. Hogan, R. A. Kowalski, S. M. Larson, G.
    J. Leonard, D. Rankin, R. L. Seaman, F. C. Shelly, K. W. Wierzchos.  1.0-m
    prime focus + CCD.
J95 Great Shefford.  Observer P. Birtwhistle.  0.41-m f/6.3 Schmidt-Cassegrain
    + CCD.

Orbital elements:
2024 EY1                                                 Earth MOID = 0.0067 AU
Epoch 2024 Mar. 31.0 TT = JDT 2460400.5                 Veres                   
M 262.36706              (2000.0)            P               Q                  
n   1.34782811     Peri.  331.76487     +0.73801340     +0.67439117             
a   0.8116704      Node   345.75403     -0.60011308     +0.64031878             
e   0.3106793      Incl.    5.38202     -0.30854581     +0.36767976             
P   0.73           H   28.45          G   0.15           U   7                  
Residuals in seconds of arc
240305 G96 (2.1+  0.3+)   240305 I52  0.1+  0.0     240306 807  0.1-  0.0
240305 G96  0.1+  0.3+    240305 I52  0.0   0.0     240306 807  0.1+  0.1+
240305 G96  0.8+  0.1+    240305 I52  0.4+  0.1+    240306 807  0.5+  0.3+
240305 G96  0.1-  0.2-    240305 I52  0.2+  0.2+    240306 858  0.2-  0.5+
240305 H01  0.3-  0.0     240306 J95  0.3-  0.6-    240306 858  0.1-  0.1+
240305 H01  0.1-  0.0     240306 J95  0.7-  0.1+    240306 858  0.0   0.0
240305 H01  0.1-  0.2-    240306 J95  0.0   0.2+
240305 H01  0.2-  0.1-    240306 807  0.2+  0.3-

Ephemeris:
2024 EY1                 a,e,i = 0.81, 0.31, 5                   q = 0.5595
Date    TT    R. A. (2000) Decl.     Delta      r    Elong.  Phase     V
2024 02 05    13 27 52.2 +07 39 30   0.1491  1.0616   116.9    55.9    26.5
...
2024 02 20    13 19 55.3 +07 54 44   0.08074 1.0455   133.2    43.6    24.8
...
2024 02 28    12 48 48.1 +08 56 22   0.04552 1.0294   148.3    30.3    23.1
...
2024 03 05    11 12 10.9 +10 52 35   0.02213 1.0139   174.7     5.2    20.6
2024 03 06    10 34 28.6 +11 07 14   0.01918 1.0110   170.3     9.5    20.5
2024 03 07    09 44 57.6 +10 59 34   0.01691 1.0081   158.1    21.6    20.7
...
2024 03 13    04 40 29.7 +00 51 51   0.02480 0.9887    77.0   101.6    24.1
...
2024 03 21    03 09 30.3 -03 30 22   0.05656 0.9584    47.0   130.5    27.9
...
2024 04 05    02 25 29.7 -04 39 15   0.1243  0.8889    24.6   152.0    32.5

M. P. C. Staff               (C) Copyright 2024 MPC           M.P.E.C. 2024-E78





More information about the Iaude mailing list